[[{"header":{"parameterUnit":"m.s-1","parameterCategory":1,"la1":30.2992,"la2":30.254,"lo1":-89.0895,"lo2":-89.0443,"dy":0.0025,"dx":0.0025,"nx":19,"ny":19,"refTime":"2026-03-06T03:00:00:Z","depth":0,"parameterNumber":2,"parameterNumberName":"U-component_of_WINDS"},"data":[0,0,0,-4.2172,-4.2176,-4.2352,-4.2353,-4.258,-4.2582,0,0,0,0,0,0,0,0,0,0,0,-4.2119,-4.2121,-4.2172,-4.2176,-4.2352,-4.2353,-4.258,-4.2582,0,0,0,0,0,0,0,0,0,0,0,-4.2118,-4.212,-4.2122,-4.2177,-4.2352,-4.2353,-4.2579,-4.2446,0,0,0,0,0,0,0,0,0,0,-4.2275,-4.2225,-4.212,-4.2122,-4.2178,-4.2352,-4.2353,-4.244,-4.2454,-4.2501,0,-4.2541,0,-4.2565,-4.2598,-4.2598,0,0,0,-4.2176,-4.2213,-4.2261,-4.2123,-4.2179,-4.2352,-4.2273,-4.2448,-4.2465,-4.252,-4.2544,-4.2552,-4.2569,-4.2599,-4.26,-4.2865,-4.2866,0,0,-4.2167,-4.2151,-4.2249,-4.2271,-4.2243,-4.2267,-4.2278,-4.2458,-4.2483,-4.2545,-4.2558,-4.2573,-4.2601,-4.2602,-4.2864,-4.2865,0,0,0,-4.2138,-4.2144,-4.2188,-4.2262,-4.2294,-4.2272,-4.2285,-4.2475,-4.249,-4.256,-4.2575,-4.2602,-4.2605,-4.2862,-4.2864,-4.2907,0,0,0,-4.2133,-4.2127,-4.2183,-4.2175,-4.229,-4.2386,-4.2298,-4.2478,-4.2499,-4.2574,-4.2602,-4.2607,-4.2861,-4.2863,-4.2903,-4.2929,0,0,0,-4.2108,-4.2124,-4.215,-4.2174,-4.2249,-4.2384,-4.241,-4.2483,-4.2508,-4.2599,-4.2608,-4.286,-4.2863,-4.2899,-4.2923,-4.2993,0,0,0,-4.2077,-4.2185,-4.215,-4.2278,-4.2248,-4.2409,-4.2409,-4.253,-4.2613,-4.2603,-4.2861,-4.2864,-4.2898,-4.2919,-4.2989,-4.3046,-4.3069,0,0,-4.2204,-4.22,-4.2277,-4.2251,-4.2414,-4.2384,-4.2555,-4.2646,-4.267,-4.2799,-4.2806,-4.2904,-4.2922,-4.2992,-4.321,-4.3228,0,0,0,-4.2312,-4.2366,-4.2413,-4.2491,-4.2564,-4.2629,-4.2696,-4.2731,-4.2841,-4.2733,-4.295,-4.2962,-4.3003,-4.3031,-4.3047,-4.3083,-4.2877,-4.2877,-4.2876,-4.2466,-4.2492,-4.2621,-4.2669,-4.2745,-4.2815,-4.288,-4.2939,-4.2942,-4.2993,-4.303,-4.3159,-4.3192,-4.3203,-4.3241,-4.3065,-4.3066,-4.3066,-4.3066,-4.2654,-4.2734,-4.274,-4.2865,-4.2893,-4.3,-4.3074,-4.3073,-4.3177,-4.3133,-4.3171,-4.3117,-4.3223,-4.3257,-4.3069,-4.3069,-4.3068,-4.3068,-4.3068,-4.2755,-4.2798,-4.284,-4.2957,-4.3046,-4.3093,-4.3193,-4.3215,-4.3237,-4.3275,-4.3316,-4.3316,-4.3316,-4.3294,-4.3295,-4.3295,-4.3295,-4.3296,-4.3296,-4.2842,-4.2888,-4.2969,-4.3059,-4.3113,-4.3188,-4.3263,-4.3318,-4.3385,-4.3393,-4.3394,-4.3391,-4.3229,-4.3186,-4.3303,-4.3302,-4.3301,-4.33,-4.33,-4.3016,-4.2982,-4.3106,-4.3161,-4.327,-4.3357,-4.3387,-4.3497,-4.3546,-4.3596,-4.3588,-4.3465,-4.3462,-4.345,-4.3414,-4.3582,-4.3582,-4.3582,-4.3583,-4.3099,-4.3101,-4.3235,-4.3321,-4.341,-4.345,-4.3593,-4.3654,-4.3712,-4.3745,-4.3725,-4.3681,-4.3668,-4.3672,-4.3655,-4.3622,-4.384,-4.384,-4.3841,-4.3207,-4.3219,-4.3334,-4.339,-4.3479,-4.3554,-4.3689,-4.379,-4.3849,-4.3852,-4.3771,-4.376,-4.3689,-4.3665,-4.366,-4.3633,-4.3573,0,0]},{"header":{"parameterUnit":"m.s-1","parameterCategory":1,"la1":30.2992,"la2":30.254,"lo1":-89.0895,"lo2":-89.0443,"dy":0.0025,"dx":0.0025,"nx":19,"ny":19,"refTime":"2026-03-06T03:00:00:Z","depth":0,"parameterNumber":3,"parameterNumberName":"V-component_of_WINDS"},"data":[0,0,0,1.8085,1.8085,1.8113,1.8113,1.8142,1.8142,0,0,0,0,0,0,0,0,0,0,0,1.8072,1.8072,1.8085,1.8085,1.8113,1.8113,1.8142,1.8142,0,0,0,0,0,0,0,0,0,0,0,1.8072,1.8072,1.8072,1.8085,1.8113,1.8113,1.8142,1.8123,0,0,0,0,0,0,0,0,0,0,1.8098,1.8081,1.8072,1.8072,1.8085,1.8113,1.8113,1.8122,1.8124,1.8126,0,1.8126,0,1.8135,1.8143,1.8144,0,0,0,1.8089,1.8079,1.8091,1.8072,1.8086,1.8112,1.8101,1.8124,1.8126,1.8129,1.8127,1.8128,1.8135,1.8144,1.8144,1.8144,1.8144,0,0,1.8087,1.8074,1.8089,1.8092,1.8087,1.81,1.8102,1.8125,1.8122,1.8127,1.8129,1.8136,1.8144,1.8144,1.8145,1.8144,0,0,0,1.808,1.8073,1.8084,1.8091,1.8096,1.8101,1.8103,1.8121,1.8126,1.8129,1.8136,1.8144,1.8144,1.8145,1.8144,1.8124,0,0,0,1.808,1.8069,1.8083,1.8075,1.8096,1.8109,1.8098,1.8124,1.8127,1.8136,1.8144,1.8144,1.8145,1.8145,1.8125,1.8117,0,0,0,1.8071,1.8068,1.807,1.8075,1.8086,1.8109,1.8115,1.8125,1.8131,1.8144,1.8144,1.8145,1.8145,1.8126,1.8118,1.8114,0,0,0,1.8059,1.805,1.807,1.8063,1.8086,1.8096,1.8115,1.8123,1.8131,1.8144,1.8145,1.8144,1.8126,1.8119,1.8115,1.8108,1.8104,0,0,1.8041,1.8048,1.8045,1.8063,1.8067,1.8093,1.8094,1.8113,1.8126,1.8138,1.8138,1.8125,1.8118,1.8114,1.8087,1.8083,0,0,0,1.8035,1.8033,1.8037,1.8045,1.8061,1.8074,1.8096,1.8104,1.8115,1.8129,1.8123,1.8119,1.8118,1.8115,1.8112,1.8112,1.8143,1.8143,1.8143,1.7989,1.8008,1.8006,1.8029,1.8037,1.8061,1.807,1.8085,1.8099,1.8098,1.8101,1.8082,1.8079,1.8077,1.8077,1.81,1.81,1.8099,1.8099,1.7965,1.7966,1.799,1.7996,1.8017,1.8023,1.8047,1.8059,1.8068,1.808,1.808,1.8092,1.8073,1.8074,1.8098,1.8098,1.8098,1.8099,1.8099,1.7937,1.7941,1.7952,1.7968,1.7979,1.8003,1.8012,1.803,1.8048,1.8047,1.8054,1.8054,1.8057,1.8049,1.8049,1.8049,1.8049,1.8049,1.8049,1.7903,1.7916,1.7922,1.7941,1.795,1.7965,1.7992,1.8002,1.8018,1.8031,1.8031,1.8048,1.8067,1.8072,1.8048,1.8048,1.8048,1.8049,1.8049,1.7871,1.7882,1.789,1.7899,1.7925,1.7936,1.7961,1.7981,1.7992,1.7997,1.8015,1.8026,1.8034,1.8036,1.804,1.801,1.801,1.801,1.801,1.7847,1.7854,1.7868,1.7883,1.79,1.7924,1.7935,1.7957,1.7982,1.7991,1.7998,1.8006,1.8007,1.8014,1.8017,1.8021,1.7986,1.7986,1.7986,1.7829,1.7839,1.7843,1.7868,1.7891,1.7911,1.7922,1.794,1.797,1.7986,1.7999,1.8,1.8011,1.8014,1.8027,1.8031,1.8039,0,0]}]]